Location: Rometta
(44.2000°N, 10.0500°E)
Time: 10:51:35
(UTC+00:00)

Cosmos 1818 - Pass Details

Date: 15 May 2021
Orbit: 771 x 802 km, 65.0° (Epoch: 15 June)

Event Time Altitude Azimuth Distance (km) Brightness Sun altitude
Rises 20:18:10 0° 329° (NNW) 3,320 8.5 -14.8°
Reaches altitude 10° 20:20:49 10° 339° (NNW) 2,387 7.2 -15.1°
Maximum altitude 20:25:50 35° 45° (NE) 1,273 4.7 -15.7°
Enters shadow 20:29:16 18° 100° (E) 1,876 5.1 -16.1°
